Sunlight Mountain, CO

12:16 PM MST on December 14, 2017 (GMT -0700)
Sunlight Mountain

Weather History for K5SM - October, 2013

Change the Weather History Date:

Monday, October 14, 2013

  Actual Average (KRIL) Record (KRIL)
Temperature  
Mean Temperature 30 °F -  
Max Temperature 33 °F 68 °F 86 °F (1953)
Min Temperature 28 °F 31 °F 20 °F (1975)
Degree Days  
Heating Degree Days 34    
Moisture  
Dew Point 29 °F    
Average Humidity 97    
Maximum Humidity 100    
Minimum Humidity 93    
Precipitation  
Precipitation 0.00 in - - ()
Sea Level Pressure  
Sea Level Pressure 30.15 in    
Wind  
Wind Speed 1 mph (WSW)    
Max Wind Speed 8 mph    
Max Gust Speed -    
Visibility 2 miles    
Events Fog , Snow , Thunderstorm    
Averages and records for this station are not official NWS values.
T = Trace of Precipitation, MM = Missing Value Source: NWS Daily Summary

Daily Weather History Graph

Daily Weather History Graph

Search for Another Location

Airport or City:

Trip Planner

Search our weather history database for the weather conditions in past years. The results will help you decide how hot, cold, wet, or windy it might be!

Date:

Astronomy

Oct. 14, 2013 Rise Set
Actual Time 7:18 AM MDT 6:31 PM MDT
Civil Twilight 6:51 AM MDT 6:58 PM MDT
Nautical Twilight 6:20 AM MDT 7:29 PM MDT
Astronomical Twilight 5:49 AM MDT 8:00 PM MDT
Moon 4:01 PM MDT 2:39 AM MDT
Length of Visible Light 12h 06m
Length of Day
11h 12m
Waxing Gibbous, 80% of the Moon is Illuminated
Oct 14
Waxing Gibbous
Oct 18
Full
Oct 26
Last Quarter
Nov 3
New
Nov 9
First Quarter

Hourly Weather History & Observations

Time (MDT) Temp. Windchill Dew Point Humidity Pressure Visibility Wind Dir Wind Speed Gust Speed Precip Events Conditions
12:09 AM 33.8 °F - 33.8 °F 100% 30.12 in 7.0 mi Calm Calm - N/A Thunderstorm Thunderstorm
12:28 AM 33.8 °F 30.8 °F 32.0 °F 93% 30.10 in 1.2 mi WSW 3.5 mph - N/A Snow , Thunderstorm Light Thunderstorms and Snow
12:49 AM 32.0 °F 27.5 °F 32.0 °F 100% 30.10 in 0.2 mi SW 4.6 mph - N/A Snow , Thunderstorm Snow
1:08 AM 32.0 °F 28.7 °F 32.0 °F 100% 30.09 in 2.0 mi SSW 3.5 mph - N/A Snow , Thunderstorm Light Thunderstorms and Snow
1:29 AM 32.0 °F - 32.0 °F 100% 30.09 in 2.0 mi Calm Calm - N/A   Overcast
1:49 AM 32.0 °F - 32.0 °F 100% 30.09 in 5.0 mi Calm Calm - N/A   Overcast
2:09 AM 32.0 °F - 32.0 °F 100% 30.09 in 5.0 mi Calm Calm - N/A Thunderstorm Overcast
2:29 AM 32.0 °F - 32.0 °F 100% 30.08 in 2.0 mi Calm Calm - N/A Snow , Thunderstorm Light Thunderstorms and Snow
2:49 AM 32.0 °F - 32.0 °F 100% 30.05 in 0.5 mi Calm Calm - N/A Snow , Thunderstorm Thunderstorms and Snow
3:09 AM 32.0 °F - 32.0 °F 100% 30.06 in 2.0 mi Calm Calm - N/A Snow , Thunderstorm Light Thunderstorms and Snow
3:29 AM 32.0 °F - 32.0 °F 100% 30.05 in 0.5 mi Calm Calm - N/A Snow , Thunderstorm Heavy Thunderstorms and Snow
3:49 AM 30.2 °F - 30.2 °F 100% 30.04 in 0.5 mi Calm Calm - N/A Snow , Thunderstorm Heavy Thunderstorms and Snow
4:09 AM 30.2 °F - 30.2 °F 100% 30.05 in 0.2 mi Calm Calm - N/A Snow Heavy Snow
4:29 AM 30.2 °F 26.7 °F 28.4 °F 93% 30.04 in 0.2 mi SSW 3.5 mph - N/A Snow Heavy Snow
4:49 AM 30.2 °F - 28.4 °F 93% 30.03 in 1.5 mi Calm Calm - N/A Snow Light Snow
5:09 AM 28.4 °F 24.6 °F 28.4 °F 100% 30.06 in 10.0 mi SSW 3.5 mph - N/A   Overcast
5:29 AM 30.2 °F 26.7 °F 28.4 °F 93% 30.05 in 10.0 mi SW 3.5 mph - N/A   Overcast
5:49 AM 30.2 °F - 28.4 °F 93% 30.07 in 10.0 mi Calm Calm - N/A   Overcast
6:09 AM 30.2 °F 26.7 °F 28.4 °F 93% 30.07 in 3.0 mi SSW 3.5 mph - N/A Snow Light Snow
6:29 AM 30.2 °F 26.7 °F 28.4 °F 93% 30.06 in 5.0 mi SSW 3.5 mph - N/A   Overcast
6:49 AM 30.2 °F 26.7 °F 28.4 °F 93% 30.06 in 10.0 mi SW 3.5 mph - N/A   Overcast
7:09 AM 30.2 °F - 28.4 °F 93% 30.06 in 0.5 mi Calm Calm - N/A Snow Light Snow
7:29 AM 30.2 °F 26.7 °F 28.4 °F 93% 30.06 in 0.5 mi SSW 3.5 mph - N/A Snow Light Snow
7:48 AM 30.2 °F 25.4 °F 28.4 °F 93% 30.06 in 1.2 mi SW 4.6 mph - N/A Snow Light Snow
8:09 AM 28.4 °F 23.3 °F 28.4 °F 100% 30.07 in 1.0 mi SW 4.6 mph - N/A Snow , Thunderstorm Light Thunderstorms and Snow
8:29 AM 28.4 °F - 28.4 °F 100% 30.08 in 0.5 mi Calm Calm - N/A Snow Light Snow
8:48 AM 28.4 °F - 28.4 °F 100% 30.09 in 5.0 mi Calm Calm - N/A   Overcast
9:08 AM 28.4 °F - 28.4 °F 100% 30.09 in 2.5 mi Calm Calm - N/A Snow Light Snow
9:29 AM 30.2 °F - 28.4 °F 93% 30.11 in 7.0 mi Calm Calm - N/A   Overcast
9:49 AM 30.2 °F - 28.4 °F 93% 30.11 in 7.0 mi Calm Calm - N/A   Overcast
10:09 AM 30.2 °F 26.7 °F 28.4 °F 93% 30.11 in 5.0 mi SW 3.5 mph - N/A   Overcast
10:28 AM 30.2 °F - 30.2 °F 100% 30.12 in 7.0 mi Calm Calm - N/A   Overcast
10:49 AM 30.2 °F - 30.2 °F 100% 30.13 in 7.0 mi Calm Calm - N/A   Overcast
11:08 AM 32.0 °F - 30.2 °F 93% 30.13 in 5.0 mi Calm Calm - N/A   Overcast
11:28 AM 32.0 °F - 30.2 °F 93% 30.13 in 1.2 mi Calm Calm - N/A Snow Light Snow
11:48 AM 32.0 °F - 30.2 °F 93% 30.13 in 0.5 mi Calm Calm - N/A Snow Light Snow
12:08 PM 30.2 °F - 30.2 °F 100% 30.13 in 0.2 mi Calm Calm - N/A Snow Heavy Snow
12:29 PM 30.2 °F - 30.2 °F 100% 30.14 in 0.5 mi Calm Calm - N/A Snow Light Snow
12:48 PM 32.0 °F - 30.2 °F 93% 30.14 in 0.2 mi Calm Calm - N/A Snow Light Snow
1:09 PM 32.0 °F - 30.2 °F 93% 30.15 in 0.2 mi Calm Calm - N/A Snow Snow
1:29 PM 30.2 °F 26.7 °F 30.2 °F 100% 30.15 in 0.2 mi WSW 3.5 mph - N/A Snow Snow
1:49 PM 30.2 °F 25.4 °F 28.4 °F 93% 30.16 in 0.2 mi WNW 4.6 mph - N/A Snow Snow
2:09 PM 30.2 °F 22.6 °F 28.4 °F 93% 30.16 in 0.2 mi West 8.1 mph - N/A Snow Snow
2:29 PM 28.4 °F - 28.4 °F 100% 30.16 in 0.2 mi Calm Calm - N/A Snow Snow
2:48 PM 30.2 °F 26.7 °F 28.4 °F 93% 30.17 in 0.2 mi West 3.5 mph - N/A Snow Light Snow
3:09 PM 30.2 °F - 28.4 °F 93% 30.18 in 0.2 mi Calm Calm - N/A Snow Light Snow
3:29 PM 30.2 °F 26.7 °F 28.4 °F 93% 30.18 in 0.2 mi SW 3.5 mph - N/A Snow Light Snow
3:49 PM 30.2 °F - 28.4 °F 93% 30.18 in 0.2 mi Calm Calm - N/A Fog Light Freezing Fog
4:08 PM 30.2 °F - 28.4 °F 93% 30.19 in 0.5 mi Calm Calm - N/A Fog Light Freezing Fog
4:29 PM 28.4 °F - 28.4 °F 100% 30.20 in 0.2 mi Calm Calm - N/A Fog Light Freezing Fog
4:49 PM 30.2 °F - 28.4 °F 93% 30.20 in 0.2 mi Calm Calm - N/A Fog Light Freezing Fog
5:08 PM 28.4 °F 24.6 °F 28.4 °F 100% 30.21 in 0.2 mi SW 3.5 mph - N/A Snow Light Snow
5:28 PM 28.4 °F - 28.4 °F 100% 30.21 in 0.2 mi Calm Calm - N/A Fog Light Freezing Fog
5:49 PM 28.4 °F - 28.4 °F 100% 30.22 in 0.2 mi Calm Calm - N/A Fog Light Freezing Fog
6:09 PM 28.4 °F - 28.4 °F 100% 30.22 in 0.2 mi Calm Calm - N/A Fog Light Freezing Fog
6:28 PM 28.4 °F - 28.4 °F 100% 30.23 in 0.2 mi Calm Calm - N/A Snow Light Snow
6:48 PM 28.4 °F - 28.4 °F 100% 30.24 in 1.0 mi Calm Calm - N/A Snow Light Snow
7:09 PM 28.4 °F 24.6 °F 26.6 °F 93% 30.24 in 0.5 mi NW 3.5 mph - N/A Fog Light Freezing Fog
7:29 PM 28.4 °F 24.6 °F 26.6 °F 93% 30.24 in 0.5 mi NW 3.5 mph - N/A Snow Light Snow
7:49 PM - - - N/A% 30.25 in 0.5 mi Calm Calm - N/A   Unknown
8:09 PM - - - N/A% 30.24 in 4.0 mi WNW 3.5 mph - N/A   Unknown
8:29 PM - - - N/A% 30.25 in 1.0 mi Calm Calm - N/A   Unknown
8:49 PM - - - N/A% 30.25 in 1.2 mi Calm Calm - N/A   Overcast
9:09 PM - - - N/A% 30.25 in 0.5 mi Calm Calm - N/A Fog Fog
9:29 PM - - - N/A% 30.25 in 1.2 mi Calm Calm - N/A   Overcast
9:49 PM - - - N/A% 30.25 in 10.0 mi Calm Calm - N/A   Overcast
10:09 PM - - - N/A% 30.26 in 1.8 mi Calm Calm - N/A   Overcast
10:29 PM - - - N/A% 30.25 in 0.2 mi Calm Calm - N/A Fog Fog
10:49 PM - - - N/A% 30.25 in 1.0 mi Calm Calm - N/A   Unknown
11:09 PM - - - N/A% 30.25 in 0.8 mi Calm Calm - N/A   Unknown
11:29 PM - - - N/A% 30.25 in 1.0 mi Calm Calm - N/A   Unknown
11:49 PM - - - N/A% 30.24 in 1.2 mi Calm Calm - N/A   Unknown